Palmdale, CA

5:34 PM PDT on October 20, 2017 (GMT -0700)
Palmdale Af Plant 42

Weather History for KPMD - June, 2014

Change the Weather History Date:

Wednesday, June 25, 2014

  Actual Average Record
Temperature  
Mean Temperature 81 °F 77 °F  
Max Temperature 94 °F 93 °F 108 °F (1957)
Min Temperature 68 °F 61 °F 42 °F (1975)
Degree Days  
Heating Degree Days 0 0  
Month to date heating degree days 0 6  
Since 1 June heating degree days 0 6  
Since 1 July heating degree days 2331 2924  
Cooling Degree Days 16 12  
Month to date cooling degree days 315 241  
Year to date cooling degree days 534 411  
Since 1 June cooling degree days 315 241  
Growing Degree Days 30 (Base 50)    
Moisture  
Dew Point 38 °F    
Average Humidity 24    
Maximum Humidity 39    
Minimum Humidity 9    
Precipitation  
Precipitation 0.00 in 0.00 in 0.00 in (2017)
Month to date precipitation 0.00 0.09  
Year to date precipitation 3.05 5.32  
Since 1 July precipitation 5.12  
Snow  
Snow 0.00 in - 0.00 in (1973)
Month to date snowfall 0.0  
Since 1 June snowfall 0.0  
Since 1 July snowfall 0.0  
Snow Depth 0.00 in    
Sea Level Pressure  
Sea Level Pressure 29.83 in    
Wind  
Wind Speed 18 mph (West)    
Max Wind Speed 35 mph    
Max Gust Speed 41 mph    
Visibility 9 miles    
Events      
T = Trace of Precipitation, MM = Missing Value Source: NWS Daily Summary

Daily Weather History Graph

Daily Weather History Graph

Search for Another Location

Airport or City:

Trip Planner

Search our weather history database for the weather conditions in past years. The results will help you decide how hot, cold, wet, or windy it might be!

Date:

Astronomy

Jun. 25, 2014 Rise Set
Actual Time 5:40 AM PDT 8:09 PM PDT
Civil Twilight 5:11 AM PDT 8:38 PM PDT
Nautical Twilight 4:34 AM PDT 9:15 PM PDT
Astronomical Twilight 3:54 AM PDT 9:55 PM PDT
Moon 4:32 AM PDT (6/25) 6:48 PM PDT (6/25)
Length of Visible Light 15h 27m
Length of Day
14h 28m
Waning Crescent, 2% of the Moon is Illuminated
Jun 25
Waning Crescent
Jun 27
New
Jul 5
First Quarter
Jul 12
Full
Jul 18
Last Quarter

Hourly Weather History & Observations

Time (PDT) Temp. Dew Point Humidity Pressure Visibility Wind Dir Wind Speed Gust Speed Precip Events Conditions
12:53 AM 75.9 °F 42.1 °F 30% 29.82 in 10.0 mi West 24.2 mph - N/A   Clear
1:53 AM 73.9 °F 43.0 °F 33% 29.82 in 10.0 mi WSW 18.4 mph - N/A   Clear
2:53 AM 73.9 °F 41.0 °F 30% 29.81 in 10.0 mi WSW 13.8 mph - N/A   Clear
3:53 AM 71.6 °F 41.0 °F 33% 29.90 in 10.0 mi WSW 13.8 mph - N/A   Clear
4:53 AM 70.0 °F 42.1 °F 36% 29.81 in 10.0 mi SW 10.4 mph - N/A   Clear
5:53 AM 68.0 °F 42.1 °F 39% 29.82 in 10.0 mi SSW 9.2 mph - N/A   Clear
6:53 AM 73.9 °F 39.0 °F 28% 29.83 in 10.0 mi SW 10.4 mph - N/A   Clear
7:53 AM 79.0 °F 37.0 °F 22% 29.83 in 10.0 mi West 11.5 mph - N/A   Clear
8:53 AM 82.0 °F 36.0 °F 19% 29.84 in 10.0 mi West 11.5 mph 19.6 mph N/A   Clear
9:53 AM 84.9 °F 37.0 °F 18% 29.83 in 10.0 mi West 16.1 mph - N/A   Clear
10:53 AM 88.0 °F 35.1 °F 15% 29.83 in 10.0 mi WNW 15.0 mph - N/A   Clear
11:53 AM 91.0 °F 34.0 °F 13% 29.81 in 10.0 mi WNW 18.4 mph - N/A   Clear
12:53 PM 93.9 °F 34.0 °F 12% 29.81 in 10.0 mi WNW 21.9 mph 28.8 mph N/A   Clear
1:53 PM 93.0 °F 33.1 °F 12% 29.80 in 10.0 mi WNW 23.0 mph 29.9 mph N/A   Clear
2:53 PM 93.9 °F 33.1 °F 12% 29.79 in 10.0 mi WNW 26.5 mph 36.8 mph N/A   Clear
3:53 PM 93.0 °F 27.0 °F 9% 29.79 in 10.0 mi WNW 25.3 mph 34.5 mph N/A   Clear
4:53 PM 93.0 °F 34.0 °F 12% 29.78 in 10.0 mi WNW 25.3 mph - N/A   Clear
5:53 PM 90.0 °F 36.0 °F 15% 29.80 in 6.0 mi West 28.8 mph 35.7 mph N/A   Haze
6:49 PM 87.8 °F 35.6 °F 16% 29.88 in 2.5 mi West 29.9 mph 41.4 mph N/A   Haze
6:53 PM 86.0 °F 37.4 °F 18% 29.89 in 2.0 mi West 28.8 mph 41.4 mph N/A   Haze
7:02 PM 86.0 °F 36.0 °F 17% 29.89 in 6.0 mi West 31.1 mph 38.0 mph N/A   Haze
7:53 PM 82.9 °F 37.0 °F 19% 29.81 in 10.0 mi WNW 23.0 mph 33.4 mph N/A   Clear
8:53 PM 80.1 °F 45.0 °F 29% 29.82 in 10.0 mi WSW 19.6 mph - N/A   Clear
9:53 PM 80.6 °F 37.4 °F 21% 29.94 in 10.0 mi West 13.8 mph - N/A   Clear
10:53 PM 78.1 °F 39.9 °F 25% 29.85 in 10.0 mi West 16.1 mph - N/A   Clear
11:53 PM 77.0 °F 43.0 °F 30% 29.85 in 10.0 mi West 18.4 mph 24.2 mph N/A   Clear